Regional Weather Roundup
Issued by NWS Bismarck, ND

Home | Current Version | Previous Version | Text Only | Print | Product List | Glossary On
Versions: 1 2 3 4 5 6 7 8 9 10 11 12 13 14 15 16 17 18 19 20 21 22 23 24 25 26 27 28 29 30 31 32 33 34 35 36 37 38 39 40 41 42 43 44 45 46 47 48 49 50
929
ASUS43 KBIS 251602
RWRBIS

NWR BROADCAST TEXT
NATIONAL WEATHER SERVICE BISMARCK ND
1100 AM CDT MON SEP 25 2017

NOTE: "FAIR" INDICATES FEW OR NO CLOUDS BELOW 12,000 FEET WITH NO
SIGNIFICANT WEATHER AND/OR OBSTRUCTIONS TO VISIBILITY.


CITY           SKY/WX    TMP DP  RH WIND       PRES   REMARKS
WILLISTON      CLOUDY    48  44  86 S3        30.17R
MINOT          CLOUDY    50  45  83 E6        30.17R
MINOT AFB      CLOUDY    49  45  87 SE8       30.16
BISMARCK       CLOUDY    51  45  79 VRB5      30.16S
DICKINSON      LGT RAIN  44  43  96 VRB3      30.15S VSB 1
GARRISON         N/A     49  44  83 SE3       30.16R
HETTINGER ARPT CLOUDY    44  38  79 CALM      30.17S
JAMESTOWN      CLOUDY    49  43  80 N12       30.13S
CARRINGTON     CLOUDY    48  43  81 N8G15     30.16F
LINTON         CLOUDY    50  45  81 N5        30.17S
TIOGA          PTSUNNY   46  46 100 CALM      30.18R
$$

CITY           SKY/WX    TMP DP  RH WIND       PRES   REMARKS
GRAND FORKS    CLOUDY    50  46  86 N13       30.13R
GRAND FORKS AF CLOUDY    49  44  83 N10       30.14R
DEVILS LAKE    CLOUDY    48  41  76 N9        30.16S
FARGO          CLOUDY    50  49  96 N12       30.10S
CANDO          CLOUDY    48  46  93 N10       30.19R
CAVALIER       FAIR      48  45  87 N13       30.15S
GWINNER        CLOUDY    50  48  93 N13       30.10F
ROLLA          CLOUDY    48  43  81 NE9       30.18S
WALHALLA       FAIR     N/A N/A N/A N12       30.16S
$$

CITY           SKY/WX    TMP DP  RH WIND       PRES   REMARKS
ABERDEEN       CLOUDY    51  47  86 N10       30.11S
MOBRIDGE       CLOUDY    51  46  83 NE12      30.12S
RAPID CITY     CLOUDY    45  43  93 S6        30.15S
GLASGOW        CLOUDY    47  43  86 E8        30.12F
SIDNEY           N/A    N/A N/A N/A MISG        N/A
WOLF POINT     CLOUDY    40  39  97 E3        30.16F FOG
GLENDIVE       CLOUDY    42  40  92 SE3       30.17S
MILES CITY     CLOUDY    40  38  93 S5        30.15R
BAKER          CLOUDY    43  38  82 S8        30.16R
$$

CITY           SKY/WX    TMP DP  RH WIND       PRES   REMARKS
BILLINGS       CLOUDY    42  38  85 SW9       30.11S
GREAT FALLS    SUNNY     51  33  50 S13       30.05S
$$





USA.gov is the U.S. government's official web portal to all federal, state and local government web resources and services.